STARLINK-31870, 59787

Orbit data source: Space-Track

STARLINK-31870, 59787 is a payload satellite owned by SpaceX/Seattle (US) in LEO that was launched on Sat, 18 May 2024 UTC via an FALCON 9 launch vehicle from the Air Force Eastern Test Range (AFETR). Payloads include a variety of satellites, spacecraft, and rockets equipped with specific instruments for various scientific and technological missions. These include communications satellites like Starlink; space stations such as the ISS; scientific satellites like the Hubble; Earth observation satellites from companies like Planet Labs, Umbra, and HawkEye 360; GPS; miniature CubeSats for education and research; and military/defense satellites.

Loading next visibility...
STARLINK-31870 details
Identifier
59787, 2024-093F
Orbit
LEO
Last TLE update19 hours ago
Origin
Flag of USSpaceX/Seattle (US)
ManufacturerSpaceX/Seattle
MissionOperational spacecraft
Bus & MotorSTARLINK V2M, Unknown motor
Mass730 kg wet, ~700 kg dry
Launch date (UTC)
2024-05-18 (8 months ago)
Launch vehicle
FALCON 9
Launch site
Air Force Eastern Test Range (AFETR)
Object type
Payload
Rocket body
Debris
Shape & HBRUnknown
Radar Cross SectionLarge (>1 m²)

Expand to show TLE details & history

TLE from 19 hours ago
0 STARLINK-31870
1 59787U 24093F   25014.49132975  .00001146  00000-0  34705-4 0  9991
2 59787  43.0057  61.5805 0002751 277.3393  82.7151 15.40700219 38522
Epoch: 2025-01-14T11:47Z
Definitive object data (Epoch: 2025-01-14T11:47:30.89Z)
Latitude-0.00001°
Longitude130.50452°
Altitude443.579 km
Speed7.648 km/s
True Right ascension04h 06m 19s
True Declination0° 00' 00"
Sunlit
Object was in full shadow at TLE epoch
Visualization TLE readout
Latitude42.8991°
Longitude-151.86666°
Altitude448.902 km
Speed7.648 km/s
Apparent Right ascension14h 12m 20s
Apparent Declination13° 28' 51"
Sunlit
Object is in full shadow
Visualization observer readout
Local Sidereal Time07:29:02
Azimuth72.78° E
Elevation0.542°
Doppler factor1
Orbital elements
Apogee altitude447.874 km
Perigee altitude444.119 km
Semi-major axis6,824.134 km
Eccentricity0.0002751
Inclination43.0057°
RAAN61.5805°
Arg. of periapsis277.3393°
True anomaly82.74637°
Mean anomaly82.7151°
Eccentric anomaly82.73074°
Mean motion3.8501 °/min
BSTAR0.000034705
Orbital period93.5 mins
Loading maneuver chart data...
Loading historical data...
Loading historical data...
Loading historical data...
Loading historical data...
Loading historical data...
Loading historical data...
Loading historical data...

STARLINK-31870 Visibility forecast

Observer location: undefined°, undefined

Span
Click to sort rows by Start time (UTC) header in descending order
Start Az.
Max El. time (UTC)
Max El. Az.
Max El.
End time (UTC)
End Az.
6 mins2025-01-15 08:19:35.451Z276.542° WNW2025-01-15 08:22:35.451Z20.794° NNE37.885°2025-01-15 08:25:35.451Z70.998° E
5 mins2025-01-15 09:58:35.451Z297.217° NW2025-01-15 10:00:35.451Z14.845° NNE40.35°2025-01-15 10:03:35.451Z89.072° E
5 mins2025-01-15 11:36:35.451Z271.171° WNW2025-01-15 11:38:35.451Z206.584° SW35.794°2025-01-15 11:41:35.451Z134.403° SE
5 mins2025-01-16 06:01:35.451Z217.505° SW2025-01-16 06:03:35.451Z162.411° S34.484°2025-01-16 06:06:35.451Z82.87° E
|